When you browse on this site, cookies collect data to enhance your experience and personalize the content and advertising you see.
Visit our Privacy Policy to learn more. By continuing to use the site, you agree to this use of cookies and data.
  • In Latvia
  • List of Countries
  • For 7 days
  • Water Temperature
  • Weather Map
  • Weather Widgets
  • user-avatar
    Login

    Hourly Weather Armagh

    Today, 24 January, Friday

    Time Temperature Precipitation Wind Pressure Humidity
    00:00 +4°C° 0 mm 2 mps 764 mmHg 96%
    01:00 +4°C° 0 mm 2 mps 763 mmHg 96%
    02:00 +4°C° 0 mm 2 mps 763 mmHg 96%
    03:00 +4°C° 0 mm 2 mps 763 mmHg 97%
    04:00 +5°C° 0 mm 2 mps 762 mmHg 96%
    05:00 +5°C° 0 mm 2 mps 762 mmHg 96%
    06:00 +5°C° 0 mm 2 mps 762 mmHg 95%
    07:00 +6°C° 0 mm 2 mps 762 mmHg 95%
    08:00 +6°C° 0 mm 2 mps 762 mmHg 96%
    09:00 +6°C° 0 mm 2 mps 762 mmHg 96%
    10:00 +6°C° 0 mm 2 mps 762 mmHg 95%
    11:00 +7°C° 0 mm 2 mps 761 mmHg 94%
    12:00 +7°C° 0 mm 2 mps 761 mmHg 93%
    13:00 +8°C° 0 mm 2 mps 761 mmHg 92%
    14:00 +8°C° 0 mm 2 mps 760 mmHg 92%
    15:00 +8°C° 0 mm 2 mps 760 mmHg 92%
    16:00 +8°C° 0 mm 2 mps 760 mmHg 93%
    17:00 +7°C° 0 mm 2 mps 759 mmHg 93%
    18:00 +7°C° 0 mm 2 mps 759 mmHg 94%
    19:00 +7°C° 0 mm 2 mps 759 mmHg 94%
    20:00 +7°C° 0 mm 2 mps 759 mmHg 93%
    21:00 +7°C° 0 mm 2 mps 759 mmHg 92%
    22:00 +7°C° 0 mm 2 mps 759 mmHg 92%
    23:00 +7°C° 0 mm 2 mps 758 mmHg 92%

    Tomorrow, 25 January, Saturday

    Time Temperature Precipitation Wind Pressure Humidity
    00:00 +7°C° 0 mm 2 mps 758 mmHg 92%
    01:00 +7°C° 0 mm 3 mps 757 mmHg 91%
    02:00 +7°C° 0 mm 3 mps 756 mmHg 90%
    03:00 +7°C° 0 mm 3 mps 756 mmHg 90%
    04:00 +7°C° 0 mm 3 mps 755 mmHg 89%
    05:00 +7°C° 0 mm 3 mps 755 mmHg 89%
    06:00 +7°C° 0 mm 3 mps 754 mmHg 88%
    07:00 +7°C° 0 mm 3 mps 754 mmHg 87%
    08:00 +7°C° 0 mm 3 mps 754 mmHg 86%
    09:00 +7°C° 0 mm 3 mps 753 mmHg 85%
    10:00 +6°C° 0 mm 4 mps 753 mmHg 85%
    11:00 +6°C° 0 mm 4 mps 753 mmHg 85%
    12:00 +7°C° 0 mm 5 mps 752 mmHg 84%
    13:00 +7°C° 0.1 mm 5 mps 752 mmHg 84%
    14:00 +7°C° 0.1 mm 5 mps 751 mmHg 83%
    15:00 +7°C° 0.1 mm 5 mps 751 mmHg 83%
    16:00 +6°C° 0 mm 5 mps 750 mmHg 83%
    17:00 +5°C° 0 mm 5 mps 749 mmHg 83%
    18:00 +5°C° 0 mm 5 mps 749 mmHg 83%
    19:00 +3°C° 0 mm 5 mps 749 mmHg 84%
    20:00 +3°C° 0 mm 5 mps 748 mmHg 85%
    21:00 +3°C° 0 mm 5 mps 748 mmHg 86%
    22:00 +3°C° 0 mm 6 mps 747 mmHg 87%
    23:00 +4°C° 0 mm 6 mps 746 mmHg 89%

    Day after tomorrow, 26 January, Sunday

    Time Temperature Precipitation Wind Pressure Humidity
    00:00 +4°C° 0 mm 6 mps 746 mmHg 91%
    01:00 +5°C° 0.3 mm 6 mps 745 mmHg 91%
    02:00 +5°C° 0.3 mm 6 mps 744 mmHg 92%
    03:00 +7°C° 0.3 mm 6 mps 744 mmHg 92%
    04:00 +5°C° 1.1 mm 6 mps 743 mmHg 92%
    05:00 +6°C° 1.1 mm 5 mps 743 mmHg 91%
    06:00 +6°C° 1.1 mm 5 mps 742 mmHg 91%
    07:00 +5°C° 0.1 mm 4 mps 743 mmHg 91%
    08:00 +5°C° 0.1 mm 4 mps 743 mmHg 92%
    09:00 +4°C° 0.1 mm 3 mps 744 mmHg 92%
    10:00 +4°C° 0.1 mm 4 mps 744 mmHg 89%
    11:00 +3°C° 0.1 mm 5 mps 744 mmHg 86%
    12:00 +3°C° 0.1 mm 5 mps 745 mmHg 84%
    13:00 +3°C° 0.1 mm 5 mps 745 mmHg 82%
    14:00 +3°C° 0.1 mm 4 mps 745 mmHg 81%
    15:00 +3°C° 0.1 mm 4 mps 744 mmHg 79%
    16:00 +2°C° 0 mm 3 mps 744 mmHg 83%
    17:00 +1°C° 0 mm 3 mps 743 mmHg 86%
    18:00 0°C° 0 mm 3 mps 743 mmHg 90%
    19:00 -1°C° 0.1 mm 4 mps 742 mmHg 90%
    20:00 0°C° 0.1 mm 4 mps 741 mmHg 90%
    21:00 0°C° 0.1 mm 5 mps 740 mmHg 90%
    22:00 0°C° 0.2 mm 5 mps 740 mmHg 90%
    23:00 0°C° 0.2 mm 5 mps 740 mmHg 90%

    27 January, Monday

    Time Temperature Precipitation Wind Pressure Humidity
    00:00 0°C° 0.2 mm 5 mps 739 mmHg 90%
    01:00 0°C° 0 mm 5 mps 739 mmHg 90%
    02:00 -1°C° 0 mm 6 mps 740 mmHg 91%
    03:00 -2°C° 0 mm 6 mps 740 mmHg 91%
    04:00 -2°C° 0.2 mm 6 mps 740 mmHg 90%
    05:00 -2°C° 0.2 mm 6 mps 739 mmHg 88%
    06:00 -1°C° 0.2 mm 5 mps 739 mmHg 86%
    07:00 -1°C° 0 mm 5 mps 739 mmHg 86%
    08:00 -1°C° 0 mm 5 mps 739 mmHg 87%
    09:00 -2°C° 0 mm 6 mps 740 mmHg 87%
    10:00 -2°C° 0 mm 6 mps 739 mmHg 87%
    11:00 -1°C° 0 mm 6 mps 739 mmHg 87%
    12:00 +1°C° 0 mm 6 mps 739 mmHg 87%
    13:00 +1°C° 0 mm 5 mps 737 mmHg 88%
    14:00 +1°C° 0 mm 4 mps 736 mmHg 89%
    15:00 +1°C° 0 mm 4 mps 735 mmHg 90%
    16:00 +1°C° 0.1 mm 3 mps 734 mmHg 92%
    17:00 +1°C° 0.1 mm 3 mps 734 mmHg 94%
    18:00 0°C° 0.1 mm 3 mps 733 mmHg 96%
    19:00 0°C° 0.2 mm 3 mps 733 mmHg 95%
    20:00 -1°C° 0.2 mm 4 mps 733 mmHg 94%
    21:00 -1°C° 0.2 mm 4 mps 732 mmHg 93%
    22:00 -2°C° 0 mm 4 mps 732 mmHg 92%
    23:00 -2°C° 0 mm 4 mps 733 mmHg 90%

    28 January, Tuesday

    Time Temperature Precipitation Wind Pressure Humidity
    00:00 -4°C° 0 mm 5 mps 733 mmHg 89%
    01:00 -4°C° 0.1 mm 5 mps 732 mmHg 89%
    02:00 -4°C° 0.1 mm 5 mps 732 mmHg 89%
    03:00 -2°C° 0.1 mm 5 mps 732 mmHg 90%
    04:00 -3°C° 0.7 mm 6 mps 732 mmHg 90%
    05:00 -2°C° 0.7 mm 7 mps 732 mmHg 91%
    06:00 -1°C° 0.7 mm 7 mps 732 mmHg 91%
    07:00 -1°C° 0.1 mm 7 mps 733 mmHg 91%
    08:00 -2°C° 0.1 mm 7 mps 733 mmHg 90%
    09:00 -2°C° 0.1 mm 8 mps 734 mmHg 89%
    10:00 -2°C° 0.1 mm 8 mps 734 mmHg 86%
    11:00 -1°C° 0.1 mm 8 mps 735 mmHg 83%
    12:00 -1°C° 0.1 mm 8 mps 735 mmHg 79%
    13:00 -1°C° 0 mm 7 mps 735 mmHg 79%
    14:00 -1°C° 0 mm 7 mps 735 mmHg 79%
    15:00 -1°C° 0 mm 6 mps 736 mmHg 78%
    16:00 -2°C° 0 mm 6 mps 736 mmHg 80%
    17:00 -2°C° 0 mm 5 mps 736 mmHg 81%
    18:00 -4°C° 0 mm 5 mps 736 mmHg 83%
    19:00 -4°C° 0.1 mm 5 mps 736 mmHg 84%
    20:00 -2°C° 0.1 mm 5 mps 736 mmHg 86%
    21:00 -3°C° 0.1 mm 6 mps 736 mmHg 87%
    22:00 -3°C° 1.3 mm 6 mps 736 mmHg 89%
    23:00 -2°C° 1.3 mm 6 mps 736 mmHg 90%

    29 January, Wednesday

    Time Temperature Precipitation Wind Pressure Humidity
    00:00 -1°C° 1.3 mm 7 mps 736 mmHg 92%
    01:00 -1°C° 0 mm 7 mps 736 mmHg 90%
    02:00 -1°C° 0 mm 7 mps 735 mmHg 89%
    03:00 -2°C° 0 mm 7 mps 735 mmHg 87%
    04:00 -1°C° 0.4 mm 7 mps 736 mmHg 89%
    05:00 -1°C° 0.4 mm 6 mps 736 mmHg 90%
    06:00 +1°C° 0.4 mm 6 mps 737 mmHg 92%
    07:00 -1°C° 0 mm 6 mps 738 mmHg 90%
    08:00 -1°C° 0 mm 6 mps 739 mmHg 89%
    09:00 -1°C° 0 mm 6 mps 739 mmHg 87%
    10:00 -1°C° 0 mm 7 mps 740 mmHg 87%
    11:00 0°C° 0 mm 8 mps 740 mmHg 88%
    12:00 +1°C° 0 mm 9 mps 741 mmHg 88%
    13:00 +1°C° 0.1 mm 8 mps 741 mmHg 88%
    14:00 +1°C° 0.1 mm 8 mps 742 mmHg 87%
    15:00 +1°C° 0.1 mm 8 mps 743 mmHg 87%
    16:00 0°C° 0 mm 7 mps 743 mmHg 86%
    17:00 +1°C° 0 mm 6 mps 744 mmHg 86%
    18:00 -1°C° 0 mm 6 mps 745 mmHg 85%
    19:00 -1°C° 0 mm 6 mps 746 mmHg 87%
    20:00 0°C° 0 mm 5 mps 746 mmHg 88%
    21:00 0°C° 0 mm 5 mps 747 mmHg 90%
    22:00 -1°C° 0.1 mm 6 mps 747 mmHg 91%
    23:00 -1°C° 0.1 mm 6 mps 747 mmHg 91%
    Show more